STARLINK-30329 (57635 NORAD) Tracking and Keplerian Element Data

This shows tracking and keplerian element data for the satellite.

Feedback or suggestion? Click here.




ElementValue
Catalog57635
NameSTARLINK-30329
Epoch Orbit274
Epoch Day238.91667824
Epoch Year2023
RAAN95.9316
Inclination43.0009
Eccentricity0.0003199
Argument of Perigee159.1634
Mean Anonmoly263.2263
Mean Motion15.86042507
Decay Rate-0.0091387
L11 57635U 23122D 23238.91667824 -.00913870 00000+0 -39634-2 0 9993
L22 57635 43.0009 95.9316 0003199 159.1634 263.2263 15.86042507 2743



Live tracking and technical data element details for STARLINK-30329 (NORAD 57635). STARLINK-30329 can be tracked NOW for your location showing map with azimuth and elevation plus other details from your city location.







IsCatalogInMostPopularTable: catalog: 57635, numindb: 6
Update: records affected: 1



GetName: 57635 STARLINK-30329

Hit Count: updated at: Tue, 26 Sep 2023 13:39:42 GMT